Hourly Weather Roundup
Issued by NWS Central Illinois

Home | Current Version | Previous Version | Text Only | Print | Product List | Glossary On
Versions: 1 2 3 4 5 6 7 8 9 10 11 12 13 14 15 16 17 18 19 20 21 22 23 24 25 26 27 28 29 30 31 32 33 34 35 36 37 38 39 40 41 42 43 44 45 46 47 48 49 50
000
NZUS43 KILX 262310
HWRILX

AREA WEATHER ROUNDUP
NATIONAL WEATHER SERVICE, LINCOLN IL
600 PM CDT TUE JUL 26 2016


CITY           SKY/WX    TMP DP  RH WIND       PRES   REMARKS
BLOOMINGTON    MOSUNNY   82  70  66 S8        30.03R HX  86
CHAMPAIGN      SUNNY     83  70  64 E5        30.02R HX  87
DANVILLE       SUNNY     83  69  63 CALM      30.00R HX  86
DECATUR        SUNNY     84  68  58 E8        30.01S HX  87
EFFINGHAM      MOSUNNY   84  75  73 NE3       30.01S HX  92
FLORA          CLOUDY    85  75  71 CALM      29.99S HX  94
GALESBURG      MOSUNNY   85  66  52 CALM      30.01R HX  87
JACKSONVILLE   MOSUNNY   85  70  60 E7        29.99S HX  90
LACON          SUNNY     83  67  56 CALM      29.99S HX  86
LAWRENCEVILLE  PTSUNNY   85  74  69 MISG      29.99R HX  92
LITCHFIELD       N/A    N/A N/A N/A MISG        N/A
$$


CITY           SKY/WX    TMP DP  RH WIND       PRES   REMARKS
LINCOLN        MOSUNNY   85  72  66 SE5       30.00S HX  91
MACOMB         SUNNY     83  67  56 CALM      30.03R HX  86
MATTOON        SUNNY     82  67  60 NE7       30.00S HX  84
MT CARMEL AP   CLOUDY    83  75  75 NW6       29.99R HX  91
OLNEY-NOBLE AP CLOUDY    82  75  78 N5        30.00S HX  89
PARIS          SUNNY     82  69  64 CALM      30.02S HX  85
PEORIA         PTSUNNY   86  68  54 VRB3      30.00R HX  89
PONTIAC        SUNNY     84  72  66 SE5       30.02R HAZE    HX  90
RANTOUL        NOT AVBL
ROBINSON       MOSUNNY   83  73  72 N5        30.00S HX  88
SPRINGFIELD    SUNNY     86  69  56 E7        30.00S HX  90
TAYLORVILLE    SUNNY     82  70  65 MISG      30.00F HX  86
$$

...REGIONAL REPORTS...


CITY           SKY/WX    TMP DP  RH WIND       PRES   REMARKS
CHICAGO O`HARE MOSUNNY   85  64  49 E8        29.99F HX  86
KANKAKEE       SUNNY     84  69  59 SE5       30.02R HX  88
MOLINE         SUNNY     86  64  47 E9        30.00R HX  87
MOUNT STERLING PTSUNNY   84  66  54 E3        30.00S HX  87
MOUNT VERNON   CLOUDY    81  70  69 MISG      29.99S HX  84
PITTSFIELD     SUNNY     86  71  60 E3        30.01S HX  91
QUINCY         SUNNY     86  64  47 NE6       29.99S HX  87
ROCKFORD       MOSUNNY   86  64  47 NW3       30.02F HX  87
$$


CITY           SKY/WX    TMP DP  RH WIND       PRES   REMARKS
BURLINGTON     MOSUNNY   84  67  56 CALM      30.01R HX  86
CEDAR RAPIDS   MOSUNNY   83  67  58 E7        30.02S HX  85
DES MOINES     MOSUNNY   86  63  45 SE8       30.02R HX  87
KIRKSVILLE     SUNNY     86  64  47 NE7       30.02R HX  87
OTTUMWA        SUNNY     84  64  50 E7        30.00S HX  85
ST LOUIS       PTSUNNY   87  74  64 S9        29.98S HX  95
$$


CITY           SKY/WX    TMP DP  RH WIND       PRES   REMARKS
TERRE HAUTE    SUNNY     83  71  67 N6        30.00R HX  87
EVANSVILLE     CLOUDY    83  75  77 W5        29.98R HX  90
INDIANAPOLIS   MOSUNNY   83  67  58 NE7       30.01S HX  85
LAFAYETTE      SUNNY     84  66  54 NE5       30.00R HX  86
MADISON        MOSUNNY   86  63  45 N6        30.01S HX  87
MILWAUKEE      MOSUNNY   83  59  44 SE13      30.00F HX  83
$$






USA.gov is the U.S. government's official web portal to all federal, state and local government web resources and services.